Hourly Weather Roundup
Issued by NWS Central Illinois

Home | Current Version | Previous Version | Text Only | Print | Product List | Glossary On
Versions: 1 2 3 4 5 6 7 8 9 10 11 12 13 14 15 16 17 18 19 20 21 22 23 24 25 26 27 28 29 30 31 32 33 34 35 36 37 38 39 40 41 42 43 44 45 46 47 48 49 50
000
NZUS43 KILX 201210
HWRILX

Area Weather Roundup
National Weather Service Lincoln IL
700 AM CDT FRI OCT 20 2017

NOTE:  "FAIR" indicates few or no clouds below 12,000 feet, with
       no sigificant weather and/or obstructions to visibility.


CITY           SKY/WX    TMP DP  RH WIND       PRES   REMARKS
Bloomington    FAIR      50  47  89 S6        30.20S
6HR MIN TEMP:  50; 6HR MAX TEMP:  56;

Champaign      FAIR      51  47  86 S7        30.22S
6HR MIN TEMP:  49; 6HR MAX TEMP:  58;

Danville       FAIR      49  49  97 CALM      30.20S
6HR MIN TEMP:  49; 6HR MAX TEMP:  54;

Decatur        FAIR      52  48  86 S6        30.22R
6HR MIN TEMP:  52; 6HR MAX TEMP:  57;

Effingham      FAIR      49  49 100 CALM      30.26R
6HR MIN TEMP:  48; 6HR MAX TEMP:  52;

Flora          FAIR      48  47  97 CALM      30.25R
6HR MIN TEMP:  48; 6HR MAX TEMP:  54;

Galesburg      FAIR      59  56  88 S6        30.16R
6HR MIN TEMP:  59; 6HR MAX TEMP:  64;

Jacksonville   FAIR      56  49  78 S8        30.18S
6HR MIN TEMP:  56; 6HR MAX TEMP:  61;

Lacon          FAIR      54  49  83 S5        30.16R
6HR MIN TEMP:  54; 6HR MAX TEMP:  58;

Lawrenceville  FOG       49  47  93 CALM      30.26R VSB 1/2
6HR MIN TEMP:  49; 6HR MAX TEMP:  55;

Litchfield     FAIR      51  48  90 S5        30.22R
6HR MIN TEMP:  50; 6HR MAX TEMP:  57;

$$


CITY           SKY/WX    TMP DP  RH WIND       PRES   REMARKS
Lincoln        FAIR      52  50  93 S5        30.20R
6HR MIN TEMP:  51; 6HR MAX TEMP:  58;

Macomb         FAIR      55  49  80 S5        30.17S
6HR MIN TEMP:  53; 6HR MAX TEMP:  57;

Mattoon        FAIR      55  52  89 S7        30.22R
6HR MIN TEMP:  54; 6HR MAX TEMP:  59;

Mt Carmel AP   FOG       46  46  97 CALM      30.26R VSB 1
6HR MIN TEMP:  46; 6HR MAX TEMP:  53;

Olney-Noble AP FAIR      48  46  93 CALM      30.26R
Paris AP       FAIR      50  48  93 SE6       30.25R
6HR MIN TEMP:  49; 6HR MAX TEMP:  55;

Peoria         FAIR      53  49  86 S3        30.17S
6HR MIN TEMP:  53; 6HR MAX TEMP:  58;

Pontiac        FAIR      53  52  97 S5        30.19S
6HR MIN TEMP:  50; 6HR MAX TEMP:  53;

Rantoul        FAIR      50  48  95 SE5       30.21F
6HR MIN TEMP:  50; 6HR MAX TEMP:  54;

Robinson       FOG       43  43 100 CALM      30.27R VSB 1/2
6HR MIN TEMP:  42; 6HR MAX TEMP:  49;

Springfield    FAIR      57  51  80 S6        30.20R
6HR MIN TEMP:  56; 6HR MAX TEMP:  62;

Taylorville    FAIR      52  49  88 S3        30.22R
6HR MIN TEMP:  52; 6HR MAX TEMP:  58;

$$

...REGIONAL REPORTS...


CITY           SKY/WX    TMP DP  RH WIND       PRES   REMARKS
Chicago O`Hare FAIR      53  47  79 S3        30.16S
Kankakee       FAIR      49  47  92 CALM      30.20S
Moline         FAIR      55  48  77 CALM      30.12R
Mount Sterling FAIR      51  47  88 S6        30.17R
Mount Vernon   FAIR      43  43 100 CALM      30.25R FOG
Pittsfield     FAIR      52  49  87 S3        30.19R
Quincy         NOT AVBL
Rockford       FAIR      50  45  83 S5        30.15S
$$


CITY           SKY/WX    TMP DP  RH WIND       PRES   REMARKS
Burlington     FAIR      53  50  89 S5        30.13R
Cedar Rapids   FAIR      50  48  93 SE7       30.07F
Des Moines     FAIR      55  51  86 S10       30.04S
Kirksville     FAIR      55  52  89 S8        30.13S
Ottumwa        FAIR      52  49  89 S8        30.08S
St Louis       FAIR      53  50  89 CALM      30.21R
$$


CITY           SKY/WX    TMP DP  RH WIND       PRES   REMARKS
Terre Haute    FAIR      46  44  93 CALM      30.25S FOG
Evansville     FAIR      46  45  96 CALM      30.27R
Indianapolis   FAIR      50  48  93 E6        30.27R
Lafayette      FAIR      49  49 100 CALM      30.24R
Madison        FAIR      51  46  83 S6        30.09S
Milwaukee      FAIR      53  44  71 SW5       30.14R
$$






USA.gov is the U.S. government's official web portal to all federal, state and local government web resources and services.